Regional Weather Roundup
Issued by NWS Cleveland, OH

Home | Current Version | Previous Version | Text Only | Print | Product List | Glossary Off
Versions: 1 2 3 4 5 6 7 8 9 10 11 12 13 14 15 16 17 18 19 20 21 22 23 24 25 26 27 28 29 30 31 32 33 34 35 36 37 38 39 40 41 42 43 44 45 46 47 48 49 50

000
ASUS41 KCLE 251210
RWRCLE
OHIO REGIONAL WEATHER ROUNDUP
NATIONAL WEATHER SERVICE CLEVELAND, OH
800 AM EDT MON MAY 25 2015

NOTE: "FAIR" INDICATES FEW OR NO CLOUDS BELOW 12,000 FEET WITH NO
SIGNIFICANT WEATHER AND/OR OBSTRUCTIONS TO VISIBILITY.

OHZ001>008-015>018-024>027-034-035-043-044-251300-
   NORTHWEST OHIO

CITY           SKY/WX    TMP DP  RH WIND       PRES   REMARKS
DEFIANCE       CLOUDY    71  58  63 S10       30.02R
FINDLAY        CLOUDY    73  56  54 S20       30.06R
TOLEDO EXPRESS CLOUDY    70  56  61 S8        30.02R
TOLEDO EXEC    CLOUDY    72  55  55 S10       30.04R
LIMA           CLOUDY    70  57  63 S16       30.07R
$$

OHZ009>014-019>023-028>033-038-089-251300-
   NORTHEAST OHIO

CITY           SKY/WX    TMP DP  RH WIND       PRES   REMARKS
CLE-HOPKINS    CLOUDY    70  53  54 S13       30.11R
CLE-LAKEFRONT  PTSUNNY   70  53  54 S15       30.08R
CUY CO. ARPT   CLOUDY    72  55  56 S12G21    30.11R
LORAIN-ELYRIA  CLOUDY    67  55  65 S10       30.10R
ASHTABULA      SUNNY     64  52  64 S7        30.14R
AKRON-CANTON   MOSUNNY   67  53  61 S10       30.15S
WOOSTER        PTSUNNY   67  53  61 S13       30.14S
MANSFIELD      CLOUDY    70  55  59 S16G24    30.13R
YOUNGSTOWN     PTSUNNY   66  53  63 S8        30.16R
$$

OHZ042-051>053-060>062-070>072-077>081-251300-
  SOUTHWEST OHIO

CITY           SKY/WX    TMP DP  RH WIND       PRES   REMARKS
CINC-COVINGTON CLOUDY    70  57  63 S10       30.13R
CINC-LUNKEN    CLOUDY    69  59  70 S3        30.13R
HAMILTON       CLOUDY    70  59  68 SE3       30.12R
DAYTON         CLOUDY    72  57  59 S15G21    30.11R
WRIGHT-PAT AFB CLOUDY    71  57  61 S14       30.11R
DAYTON GENERAL CLOUDY    68  57  68 S8        30.11S
WILMINGTON     CLOUDY    69  53  56 S9        30.13S
$$

OHZ036-037-039>041-045>050-054>059-063>069-073>076-082>088-251300-
  CENTRAL AND SOUTHEAST OHIO

CITY           SKY/WX    TMP DP  RH WIND       PRES   REMARKS
COLUMBUS       CLOUDY    69  54  58 S6        30.14R
OSU AIRPORT    CLOUDY    68  54  60 S10       30.13R
BOLTON FIELD   PTSUNNY   66  57  72 S7        30.14
RICKENBACK AFB CLOUDY    67  55  64 S9        30.14R
NEWARK         PTSUNNY   67  55  65 S6        30.15R
MARION         CLOUDY    69  55  60 S15       30.12R
LANCASTER      CLOUDY    69  54  58 S6        30.16R
ZANESVILLE     PTSUNNY   66  54  65 S5        30.17R
NEW PHILLY     MOSUNNY   69  54  58 S5        30.17S
$$


USA.gov is the U.S. government's official web portal to all federal, state and local government web resources and services.